Location: Bégole
(43.1574°N, 0.3291°E)
Time: 02:26:30
(UTC+00:00)

deb Delta 89 - Pass Details

Date: 25 February 2024
Orbit: 714 x 2021 km, 97.5° (Epoch: 13 April)

Event Time Altitude Azimuth Distance (km) Brightness Sun altitude
Rises 03:18:03 0° 9° (N) 5,456 ? -37.3°
Reaches altitude 10° 03:21:21 10° 7° (N) 4,480 ? -36.7°
Enters shadow 03:32:27 61° 292° (WNW) 2,158 ? -34.9°
